Home   Weather   Seattle   Past weeks

Flag for USA Past Weather in Seattle, Washington, USA — Yesterday and Last 2 Weeks

Now
48 °F

More clouds than sun.


Feels Like: 44 °F
Forecast: 47 / 52 °F
Wind: 8 mph from East

Location: Seattle Boeing Field

Current Time: Apr 30, 2017 at 11:54:39 am

Latest Report: Apr 30, 2017 at 10:53 am


Visibility: 9 mi

Pressure: 30.28 "Hg

Humidity: 89%

Dew Point: 45 °F

Location of SeattleLocation

Past Weather in Seattle — Graph

°F

Seattle Temperature Yesterday

Maximum temperature yesterday: 57 °F (at 4:53 pm)
Minimum temperature yesterday: 43 °F (at 5:53 am)
Average temperature yesterday: 50 °F

High & Low Weather Summary for the Past Weeks

 TemperatureHumidityPressure
High66 °F (Apr 16, 3:53 pm)100% (Apr 18, 1:53 am)30.42 "Hg (Apr 18, 1:53 am)
Low43 °F (Apr 16, 4:53 am)31% (Apr 16, 3:53 pm)29.72 "Hg (Apr 24, 9:53 am)
Average52 °F77%30.02 "Hg
* Reported Apr 15 9:53 am — Apr 30 9:53 am, Seattle, Weather by CustomWeather, © 2017

Note: Actual official high and low records may vary slightly from our data, if they occured in-between our weather recording intervals... More about our weather records

Advertising

Seattle Weather History for the Previous 24 Hours

Scroll right to see more
 ConditionsComfort  
Time TempWeatherWind HumidityBarometerVisibility
9:53 am
Sun, Apr 30
49 °FMore clouds than sun.6 mph86%30.26 "Hg10 mi
8:53 am48 °FMore clouds than sun.6 mph83%30.24 "Hg10 mi
7:53 am48 °FPartly sunny.3 mph86%30.22 "Hg10 mi
6:53 am48 °FMore clouds than sun.7 mph93%30.20 "Hg10 mi
5:53 am48 °FOvercast.6 mph89%30.18 "Hg10 mi
4:53 am49 °FMostly cloudy.6 mph86%30.17 "Hg10 mi
3:53 am50 °FMostly cloudy.3 mph93%30.16 "Hg10 mi
2:53 am50 °FPassing clouds.No wind96%30.13 "Hg10 mi
1:53 am51 °FOvercast.15 mph92%30.10 "Hg10 mi
12:53 am50 °FMostly cloudy.9 mph100%30.11 "Hg10 mi
11:53 pm
Sat, Apr 29
50 °FFog.9 mph100%30.10 "Hg6 mi
10:53 pm49 °FMostly cloudy.8 mph97%30.11 "Hg10 mi
9:53 pm48 °FLight rain. Mostly cloudy.12 mph100%30.12 "Hg7 mi
8:53 pm48 °FLight rain. Overcast.9 mph96%30.12 "Hg10 mi
7:53 pm48 °FCloudy.8 mph93%30.13 "Hg10 mi
6:53 pm51 °FLight rain. Overcast.8 mph83%30.13 "Hg10 mi
5:53 pm56 °FLight rain. Mostly cloudy.8 mph62%30.13 "Hg10 mi
4:53 pm57 °FMore clouds than sun.9 mph55%30.14 "Hg10 mi
3:53 pm55 °FMore clouds than sun.6 mph67%30.16 "Hg10 mi
2:53 pm55 °FOvercast.5 mph67%30.18 "Hg10 mi
1:58 pm54 °FOvercast.7 mph67%30.19 "Hg10 mi
12:53 pm53 °FPartly sunny.7 mph66%30.22 "Hg10 mi
11:53 am52 °FPartly sunny.8 mph72%30.25 "Hg10 mi
Weather by CustomWeather, © 2017

See weather overviewHow to use our weather pages